• In Germany
  • List of Countries
  • For 7 days
  • Water Temperature
  • Satellite Maps
  • Weather Map
  • Weather Widgets
  • user-avatar
    Login

    Hourly Weather Telavi

    Today, 20 October, Saturday

    Time Temperature Precipitation Wind Pressure Humidity
    00:00 +14°C° 0 mm 1 mps 711 mmHg 74%
    01:00 +14°C° 0 mm 1 mps 711 mmHg 73%
    02:00 +14°C° 0 mm 1 mps 711 mmHg 72%
    03:00 +14°C° 0 mm 1 mps 710 mmHg 70%
    04:00 +14°C° 0 mm 1 mps 710 mmHg 70%
    05:00 +14°C° 0 mm 1 mps 710 mmHg 69%
    06:00 +13°C° 0 mm 1 mps 710 mmHg 69%
    07:00 +15°C° 0 mm 1 mps 710 mmHg 65%
    08:00 +16°C° 0 mm 1 mps 710 mmHg 61%
    09:00 +19°C° 0 mm 1 mps 710 mmHg 55%
    10:00 +20°C° 0 mm 1 mps 710 mmHg 51%
    11:00 +22°C° 0 mm 1 mps 710 mmHg 48%
    12:00 +23°C° 0 mm 1 mps 710 mmHg 44%
    13:00 +23°C° 0 mm 1 mps 709 mmHg 43%
    14:00 +24°C° 0 mm 1 mps 709 mmHg 42%
    15:00 +24°C° 0 mm 1 mps 709 mmHg 40%
    16:00 +22°C° 0 mm 1 mps 709 mmHg 46%
    17:00 +21°C° 0 mm 1 mps 709 mmHg 52%
    18:00 +19°C° 0 mm 1 mps 709 mmHg 57%
    19:00 +18°C° 0 mm 1 mps 709 mmHg 59%
    20:00 +18°C° 0 mm 1 mps 709 mmHg 60%
    21:00 +16°C° 0 mm 1 mps 709 mmHg 62%
    22:00 +16°C° 0 mm 1 mps 709 mmHg 62%
    23:00 +16°C° 0 mm 1 mps 709 mmHg 63%

    Tomorrow, 21 October, Sunday

    Time Temperature Precipitation Wind Pressure Humidity
    00:00 +15°C° 0 mm 1 mps 709 mmHg 64%
    01:00 +15°C° 0 mm 1 mps 709 mmHg 64%
    02:00 +15°C° 0 mm 1 mps 709 mmHg 64%
    03:00 +14°C° 0 mm 1 mps 709 mmHg 64%
    04:00 +14°C° 0 mm 1 mps 708 mmHg 64%
    05:00 +14°C° 0 mm 1 mps 708 mmHg 64%
    06:00 +14°C° 0 mm 1 mps 708 mmHg 64%
    07:00 +16°C° 0 mm 1 mps 709 mmHg 59%
    08:00 +18°C° 0 mm 1 mps 709 mmHg 53%
    09:00 +20°C° 0 mm 1 mps 709 mmHg 48%
    10:00 +21°C° 0 mm 1 mps 709 mmHg 46%
    11:00 +22°C° 0 mm 1 mps 709 mmHg 43%
    12:00 +24°C° 0 mm 1 mps 709 mmHg 40%
    13:00 +24°C° 0 mm 1 mps 709 mmHg 39%
    14:00 +24°C° 0 mm 2 mps 708 mmHg 38%
    15:00 +24°C° 0 mm 2 mps 708 mmHg 37%
    16:00 +23°C° 0 mm 2 mps 708 mmHg 42%
    17:00 +21°C° 0 mm 1 mps 708 mmHg 47%
    18:00 +19°C° 0 mm 1 mps 708 mmHg 51%
    19:00 +19°C° 0 mm 1 mps 708 mmHg 52%
    20:00 +18°C° 0 mm 1 mps 709 mmHg 53%
    21:00 +18°C° 0 mm 1 mps 709 mmHg 54%
    22:00 +16°C° 0 mm 1 mps 709 mmHg 55%
    23:00 +16°C° 0 mm 1 mps 709 mmHg 55%

    Day after tomorrow, 22 October, Monday

    Time Temperature Precipitation Wind Pressure Humidity
    00:00 +15°C° 0 mm 1 mps 709 mmHg 56%
    01:00 +15°C° 0 mm 1 mps 709 mmHg 56%
    02:00 +15°C° 0 mm 1 mps 709 mmHg 56%
    03:00 +15°C° 0 mm 1 mps 709 mmHg 56%
    04:00 +14°C° 0 mm 1 mps 709 mmHg 57%
    05:00 +14°C° 0 mm 1 mps 709 mmHg 57%
    06:00 +14°C° 0 mm 1 mps 709 mmHg 57%
    07:00 +16°C° 0 mm 1 mps 709 mmHg 53%
    08:00 +18°C° 0 mm 1 mps 710 mmHg 48%
    09:00 +20°C° 0 mm 1 mps 710 mmHg 43%
    10:00 +21°C° 0 mm 1 mps 710 mmHg 41%
    11:00 +22°C° 0 mm 1 mps 710 mmHg 39%
    12:00 +23°C° 0 mm 1 mps 710 mmHg 37%
    13:00 +23°C° 0 mm 1 mps 710 mmHg 37%
    14:00 +23°C° 0 mm 1 mps 709 mmHg 37%
    15:00 +23°C° 0 mm 1 mps 709 mmHg 37%
    16:00 +22°C° 0 mm 1 mps 709 mmHg 42%
    17:00 +20°C° 0 mm 1 mps 709 mmHg 47%
    18:00 +17°C° 0 mm 0 mps 709 mmHg 51%
    19:00 +18°C° 0 mm 1 mps 710 mmHg 53%
    20:00 +18°C° 0 mm 1 mps 710 mmHg 54%
    21:00 +16°C° 0 mm 1 mps 710 mmHg 55%
    22:00 +16°C° 0 mm 1 mps 710 mmHg 56%
    23:00 +16°C° 0 mm 1 mps 710 mmHg 56%

    23 October, Tuesday

    Time Temperature Precipitation Wind Pressure Humidity
    00:00 +15°C° 0 mm 1 mps 710 mmHg 57%
    01:00 +15°C° 0 mm 1 mps 710 mmHg 57%
    02:00 +15°C° 0 mm 1 mps 710 mmHg 58%
    03:00 +14°C° 0 mm 1 mps 710 mmHg 59%
    04:00 +14°C° 0 mm 1 mps 710 mmHg 59%
    05:00 +14°C° 0 mm 1 mps 710 mmHg 60%
    06:00 +13°C° 0 mm 1 mps 709 mmHg 60%
    07:00 +15°C° 0 mm 1 mps 710 mmHg 55%
    08:00 +16°C° 0 mm 1 mps 710 mmHg 50%
    09:00 +19°C° 0 mm 1 mps 710 mmHg 45%
    10:00 +20°C° 0 mm 1 mps 710 mmHg 42%
    11:00 +21°C° 0 mm 1 mps 709 mmHg 40%
    12:00 +22°C° 0 mm 1 mps 709 mmHg 37%
    13:00 +22°C° 0 mm 1 mps 709 mmHg 37%
    14:00 +22°C° 0 mm 1 mps 709 mmHg 37%
    15:00 +22°C° 0 mm 1 mps 708 mmHg 37%
    16:00 +21°C° 0.2 mm 1 mps 708 mmHg 45%
    17:00 +20°C° 0.2 mm 1 mps 709 mmHg 52%
    18:00 +18°C° 0.2 mm 1 mps 709 mmHg 59%
    19:00 +16°C° 0.1 mm 1 mps 709 mmHg 62%
    20:00 +16°C° 0.1 mm 1 mps 709 mmHg 65%
    21:00 +15°C° 0.1 mm 1 mps 709 mmHg 68%
    22:00 +15°C° 0 mm 1 mps 709 mmHg 68%
    23:00 +14°C° 0 mm 1 mps 709 mmHg 69%

    24 October, Wednesday

    Time Temperature Precipitation Wind Pressure Humidity
    00:00 +14°C° 0 mm 1 mps 708 mmHg 70%
    01:00 +14°C° 0 mm 2 mps 708 mmHg 69%
    02:00 +13°C° 0 mm 2 mps 708 mmHg 69%
    03:00 +13°C° 0 mm 2 mps 708 mmHg 68%
    04:00 +13°C° 0 mm 2 mps 708 mmHg 67%
    05:00 +13°C° 0 mm 2 mps 707 mmHg 66%
    06:00 +13°C° 0 mm 2 mps 707 mmHg 64%
    07:00 +14°C° 0 mm 1 mps 707 mmHg 58%
    08:00 +16°C° 0 mm 1 mps 707 mmHg 52%
    09:00 +19°C° 0 mm 1 mps 707 mmHg 46%
    10:00 +20°C° 0 mm 1 mps 707 mmHg 43%
    11:00 +21°C° 0 mm 1 mps 706 mmHg 40%
    12:00 +23°C° 0 mm 1 mps 706 mmHg 37%
    13:00 +23°C° 0 mm 2 mps 706 mmHg 36%
    14:00 +23°C° 0 mm 2 mps 705 mmHg 35%
    15:00 +23°C° 0 mm 2 mps 705 mmHg 34%
    16:00 +21°C° 0 mm 2 mps 705 mmHg 37%
    17:00 +19°C° 0 mm 2 mps 704 mmHg 40%
    18:00 +18°C° 0 mm 2 mps 704 mmHg 43%
    19:00 +17°C° 0 mm 2 mps 704 mmHg 44%
    20:00 +18°C° 0 mm 1 mps 704 mmHg 44%
    21:00 +16°C° 0 mm 1 mps 704 mmHg 45%
    22:00 +16°C° 0.1 mm 1 mps 703 mmHg 47%
    23:00 +16°C° 0.1 mm 2 mps 703 mmHg 48%

    25 October, Thursday

    Time Temperature Precipitation Wind Pressure Humidity
    00:00 +16°C° 0.1 mm 2 mps 702 mmHg 50%
    01:00 +15°C° 0.4 mm 2 mps 702 mmHg 54%
    02:00 +15°C° 0.4 mm 2 mps 701 mmHg 59%
    03:00 +14°C° 0.4 mm 2 mps 701 mmHg 63%
    04:00 +14°C° 0.3 mm 2 mps 701 mmHg 65%
    05:00 +14°C° 0.3 mm 2 mps 701 mmHg 67%
    06:00 +14°C° 0.3 mm 2 mps 701 mmHg 69%
    07:00 +15°C° 0 mm 2 mps 701 mmHg 64%
    08:00 +16°C° 0 mm 1 mps 701 mmHg 59%
    09:00 +18°C° 0 mm 1 mps 701 mmHg 54%
    10:00 +20°C° 0 mm 1 mps 700 mmHg 49%
    11:00 +20°C° 0 mm 2 mps 700 mmHg 44%
    12:00 +21°C° 0 mm 2 mps 700 mmHg 40%
    13:00 +23°C° 0 mm 2 mps 699 mmHg 39%
    14:00 +23°C° 0 mm 2 mps 699 mmHg 39%
    15:00 +23°C° 0 mm 2 mps 698 mmHg 38%
    16:00 +21°C° 0.1 mm 2 mps 699 mmHg 42%
    17:00 +20°C° 0.1 mm 2 mps 699 mmHg 47%
    18:00 +19°C° 0.1 mm 1 mps 699 mmHg 51%
    19:00 +19°C° 0.1 mm 1 mps 699 mmHg 52%
    20:00 +18°C° 0.1 mm 1 mps 699 mmHg 53%
    21:00 +18°C° 0.1 mm 1 mps 699 mmHg 54%
    22:00 +18°C° 0.1 mm 1 mps 699 mmHg 55%
    23:00 +18°C° 0.1 mm 1 mps 699 mmHg 56%
    Show more